Tracking 19247 objects as of 24-Sep-2018
HD Live streaming from Space Station
objects crossing your sky now

NIMBUS 2 DEB

Track NIMBUS 2 DEB now!
10-day predictions


NORAD ID: 28978
Int'l Code: 1966-040AP
Perigee: 1,071.7 km
Apogee: 1,139.7 km
Inclination: 100.4 °
Period: 107.2 minutes
Semi major axis: 7476 km
RCS: 0.0207 m2 (small)
Launch date: May 15, 1966
Source: United States (US)
Launch site: AIR FORCE WESTERN TEST RANGE (AFWTR)

Note: This is SATELLITE DEBRIS
aabbcc
Your satellite tracking list
Your tracking list is empty




NASA's NSSDC Master Catalog

Two Line Element Set (TLE):
1 28978U 66040AP  18266.36614306 +.00000661 +00000-0 +12382-2 0  9993
2 28978 100.4155 050.8526 0045423 331.3526 083.6266 13.42882349549899
Source of the keplerian elements: AFSPC